"startDT [UTC]","vpos","CH4 [ppm]","stdev(CH4) [ppm]","CO2 [ppm]","stdev(CO2) [ppm]","H2O_reported [%]","stdev(H2O_reported)","CavityPressure [torr]","CavityTemp [C]","OutletValve","CH4_dry [ppm]","CO2_dry [ppm]","DasTemp [C]","EtalonTemp [C]","WarmBoxTemp [C]","MPVPosition","T_ECpre [C]","T_EC1 [C]","T_EC2 [C]","p_inlet [hPa]","p_in [hPa]","p_out [hPa]","T_inlet [C]","RH_inlet [%]","dwpt_inlet [C]","T_vent [C]","RH_vent [%]","dwpt_vent [C]","flow_vent [l min-1]","flow_inlet [l min-1]","dwpt_sample [C]","T_room [C]"
2015-03-13 00:00:00,0.0,1.92451,0.00026,404.702,0.029,0.2494,0.0019,139.997,45.000,34136.49997,1.92925,405.924,32.446,45.068,45.000,0.00,0.09,-272.72,-272.75,-2,975,-1,21.1,7.4,-15.4,20.7,7.7,-15.3,5.73,1.93,-12.0,25.3
2015-03-13 00:01:00,0.0,1.92489,0.00033,404.690,0.029,0.2488,0.0020,140.000,45.000,34135.98224,1.92962,405.909,32.445,45.068,45.000,0.00,0.09,-272.73,-272.78,-2,976,-1,21.0,7.4,-15.5,20.7,7.7,-15.3,5.73,1.93,-12.0,25.3
2015-03-13 00:02:00,0.0,1.92473,0.00034,404.696,0.023,0.2486,0.0017,140.003,45.000,34136.01736,1.92947,405.914,32.438,45.068,45.000,0.00,0.09,-272.71,-272.74,-2,975,-1,21.1,7.4,-15.4,20.7,7.7,-15.3,5.73,1.94,-12.0,25.3
2015-03-13 00:03:00,0.0,1.92471,0.00024,404.697,0.032,0.2493,0.0014,139.999,45.000,34134.80372,1.92948,405.916,32.437,45.068,45.000,0.00,0.09,-272.70,-272.78,-1,976,-1,21.1,7.4,-15.4,20.7,7.7,-15.2,5.73,1.94,-12.0,25.3
2015-03-13 00:04:00,0.0,1.92477,0.00028,404.711,0.039,0.2498,0.0022,139.997,45.000,34136.68626,1.92952,405.936,32.429,45.068,45.000,0.00,0.09,-272.72,-272.77,-1,975,-1,21.1,7.4,-15.4,20.7,7.7,-15.3,5.73,1.95,-12.0,25.3
2015-03-13 00:05:00,0.0,1.92454,0.00039,404.711,0.028,0.2503,0.0017,140.002,45.000,34138.99835,1.92933,405.936,32.411,45.068,45.000,0.00,0.09,-272.72,-272.75,-1,976,-1,21.1,7.4,-15.4,20.7,7.7,-15.3,5.73,1.95,-12.0,25.3
2015-03-13 00:06:00,0.0,1.92471,0.00044,404.708,0.026,0.2507,0.0014,140.001,45.000,34137.24089,1.92949,405.937,32.425,45.068,45.000,0.00,0.09,-272.70,-272.76,-1,975,-1,21.1,7.4,-15.3,20.7,7.7,-15.2,5.73,1.96,-12.0,25.3
2015-03-13 00:07:00,0.0,1.92458,0.00027,404.720,0.037,0.2511,0.0023,140.000,45.000,34137.48168,1.92935,405.948,32.427,45.068,45.000,0.00,0.09,-272.70,-272.77,-2,976,-1,21.1,7.4,-15.3,20.7,7.7,-15.2,5.73,1.95,-12.0,25.3
2015-03-13 00:08:00,0.0,1.92460,0.00031,404.705,0.034,0.2507,0.0016,139.998,45.000,34138.87427,1.92937,405.935,32.435,45.068,45.000,0.00,0.09,-272.71,-272.77,-1,975,-1,21.1,7.4,-15.3,20.7,7.7,-15.2,5.73,1.95,-12.0,25.3
2015-03-13 00:09:00,0.0,1.92469,0.00026,404.679,0.036,0.2520,0.0015,140.000,45.000,34140.50781,1.92951,405.913,32.438,45.068,45.000,0.00,0.09,-272.71,-272.75,-2,976,-1,21.1,7.4,-15.3,20.7,7.7,-15.2,5.73,1.94,-12.0,25.3
2015-03-13 00:10:00,0.0,1.92473,0.00040,404.715,0.030,0.2512,0.0014,140.000,45.000,34137.32952,1.92949,405.947,32.456,45.068,45.000,0.00,0.09,-272.71,-272.79,-1,975,-1,21.1,7.4,-15.3,20.7,7.7,-15.2,5.73,1.93,-11.9,25.3
2015-03-13 00:11:00,0.0,1.92480,0.00039,404.699,0.031,0.2507,0.0018,139.998,45.000,34138.42618,1.92963,405.926,32.499,45.068,45.000,0.00,0.09,-272.72,-272.78,-1,976,-1,21.1,7.4,-15.3,20.7,7.7,-15.2,5.73,1.92,-12.0,25.3
2015-03-13 00:12:00,0.0,1.92433,0.00036,404.697,0.037,0.2493,0.0017,140.003,45.000,34141.78364,1.92910,405.919,32.501,45.068,45.000,0.00,0.10,-272.68,-272.75,-1,976,-1,21.1,7.4,-15.4,20.7,7.7,-15.3,5.73,1.92,-12.0,25.3
2015-03-13 00:13:00,0.0,1.92457,0.00034,404.708,0.033,0.2484,0.0015,139.996,45.000,34140.74961,1.92928,405.925,32.500,45.068,45.000,0.00,0.09,-272.68,-272.76,-2,976,-1,21.1,7.4,-15.4,20.7,7.7,-15.3,5.73,1.92,-12.0,25.3
2015-03-13 00:14:00,0.0,1.92456,0.00039,404.715,0.030,0.2492,0.0018,139.999,45.000,34140.11026,1.92931,405.935,32.503,45.068,45.000,0.00,0.09,-272.71,-272.76,-1,975,-1,21.1,7.4,-15.4,20.7,7.7,-15.3,5.73,1.92,-12.0,25.3
2015-03-13 00:15:00,0.0,1.92464,0.00038,404.718,0.028,0.2508,0.0017,139.996,45.000,34139.96793,1.92939,405.946,32.512,45.068,45.000,0.00,0.09,-272.71,-272.77,-2,976,-1,21.2,7.4,-15.4,20.7,7.7,-15.2,5.73,1.92,-12.0,25.3
2015-03-13 00:16:00,0.0,1.92470,0.00032,404.717,0.032,0.2475,0.0021,139.998,45.000,34141.19798,1.92944,405.929,32.500,45.068,45.000,0.00,0.09,-272.71,-272.77,-1,975,-1,21.1,7.4,-15.4,20.7,7.7,-15.3,5.73,1.92,-12.0,25.3
2015-03-13 00:17:00,0.0,1.92489,0.00042,404.730,0.028,0.2489,0.0020,140.001,45.000,34140.91071,1.92961,405.947,32.499,45.068,45.000,0.00,0.09,-272.71,-272.77,-2,976,-1,21.2,7.3,-15.4,20.7,7.6,-15.3,5.73,1.93,-12.0,25.4
2015-03-13 00:18:00,0.0,1.92473,0.00035,404.746,0.027,0.2483,0.0013,140.002,45.000,34141.20241,1.92944,405.964,32.500,45.068,45.000,0.00,0.09,-272.71,-272.77,-1,975,-1,21.2,7.3,-15.5,20.7,7.6,-15.3,5.73,1.93,-12.0,25.3
2015-03-13 00:19:00,0.0,1.92501,0.00041,404.726,0.035,0.2469,0.0017,139.999,45.000,34139.75109,1.92973,405.936,32.497,45.068,45.000,0.00,0.09,-272.70,-272.77,-2,976,-1,21.2,7.3,-15.5,20.7,7.6,-15.4,5.73,1.94,-12.0,25.4
2015-03-13 00:20:00,0.0,1.92519,0.00035,404.731,0.032,0.2473,0.0018,140.000,45.000,34140.83409,1.92991,405.941,32.496,45.068,45.000,0.00,0.09,-272.70,-272.76,-1,976,-1,21.2,7.3,-15.5,20.7,7.6,-15.4,5.73,1.95,-12.0,25.3
2015-03-13 00:21:00,0.0,1.92485,0.00029,404.724,0.034,0.2494,0.0017,140.000,45.000,34142.20947,1.92961,405.946,32.497,45.068,45.000,0.00,0.09,-272.72,-272.78,-2,977,-1,21.2,7.3,-15.5,20.7,7.6,-15.3,5.73,1.95,-12.0,25.4
2015-03-13 00:22:00,0.0,1.92480,0.00042,404.729,0.038,0.2499,0.0016,140.000,45.000,34143.28777,1.92958,405.953,32.497,45.068,45.000,0.00,0.09,-272.71,-272.76,-2,976,-1,21.2,7.3,-15.4,20.7,7.6,-15.3,5.73,1.95,-11.9,25.3
2015-03-13 00:23:00,0.0,1.92450,0.00037,404.711,0.038,0.2494,0.0019,140.000,45.000,34145.88139,1.92926,405.932,32.494,45.068,45.000,0.00,0.09,-272.70,-272.76,-2,977,-1,21.2,7.4,-15.4,20.7,7.7,-15.2,5.73,1.95,-12.0,25.3
2015-03-13 00:24:00,0.0,1.92460,0.00038,404.696,0.027,0.2501,0.0015,140.000,45.000,34148.31396,1.92936,405.922,32.498,45.068,45.000,0.00,0.09,-272.71,-272.76,-1,975,-1,21.2,7.3,-15.4,20.7,7.7,-15.2,5.73,1.95,-12.0,25.4
2015-03-13 00:25:00,0.0,1.92459,0.00038,404.703,0.040,0.2503,0.0014,140.001,45.000,34146.79701,1.92936,405.927,32.498,45.068,45.000,0.00,0.09,-272.71,-272.77,-2,976,-1,21.2,7.3,-15.4,20.7,7.7,-15.2,5.73,1.96,-11.9,25.4
2015-03-13 00:26:00,0.0,1.92482,0.00038,404.704,0.029,0.2516,0.0015,139.999,45.000,34144.47796,1.92963,405.938,32.492,45.068,45.000,0.00,0.09,-272.72,-272.76,-1,975,-1,21.2,7.4,-15.4,20.7,7.7,-15.2,5.73,1.94,-11.9,25.4
2015-03-13 00:27:00,0.0,1.92450,0.00029,404.700,0.046,0.2521,0.0022,140.002,45.000,34147.21121,1.92931,405.935,32.471,45.068,45.000,0.00,0.09,-272.71,-272.76,-2,977,-1,21.2,7.4,-15.3,20.7,7.7,-15.2,5.73,1.94,-11.9,25.3
2015-03-13 00:28:00,0.0,1.92459,0.00031,404.705,0.027,0.2511,0.0021,140.001,45.000,34143.47633,1.92937,405.935,32.453,45.068,45.000,0.00,0.09,-272.71,-272.77,-2,976,-1,21.2,7.4,-15.4,20.7,7.7,-15.2,5.73,1.93,-11.9,25.4
2015-03-13 00:29:00,0.0,1.92450,0.00036,404.696,0.038,0.2510,0.0017,139.997,45.000,34144.61735,1.92927,405.925,32.461,45.068,45.000,0.00,0.09,-272.70,-272.76,-2,977,-1,21.2,7.4,-15.4,20.7,7.7,-15.2,5.73,1.93,-11.9,25.4
2015-03-13 00:30:00,0.0,1.92508,0.00040,404.723,0.033,0.2491,0.0014,139.997,45.000,34140.84684,1.92983,405.942,32.452,45.068,45.000,0.00,0.09,-272.70,-272.77,-2,976,-1,21.2,7.3,-15.4,20.7,7.7,-15.2,5.73,1.91,-11.9,25.3
2015-03-13 00:31:00,0.0,1.92475,0.00040,404.708,0.034,0.2509,0.0018,140.001,45.000,34140.51998,1.92953,405.939,32.467,45.068,45.000,0.00,0.09,-272.71,-272.77,-3,976,-1,21.2,7.3,-15.4,20.7,7.7,-15.2,5.73,1.91,-11.8,25.3
2015-03-13 00:32:00,0.0,1.92427,0.00037,404.664,0.028,0.2503,0.0023,140.000,45.000,34142.49125,1.92905,405.891,32.446,45.068,45.000,0.00,0.09,-272.71,-272.76,-2,976,-1,21.2,7.3,-15.4,20.7,7.7,-15.2,5.73,1.91,-12.0,25.3
2015-03-13 00:33:00,0.0,1.92478,0.00025,404.724,0.034,0.2461,0.0024,140.001,45.000,34142.02425,1.92946,405.929,32.482,45.068,45.000,0.00,0.09,-272.70,-272.76,-3,976,-1,21.2,7.2,-15.6,20.7,7.6,-15.4,5.73,1.91,-12.1,25.4
2015-03-13 00:34:00,0.0,1.92462,0.00038,404.744,0.038,0.2451,0.0022,140.002,45.000,34141.27880,1.92929,405.943,32.502,45.068,45.000,0.00,0.09,-272.70,-272.77,-2,976,-1,21.2,7.2,-15.7,20.7,7.5,-15.5,5.73,1.90,-11.9,25.4
2015-03-13 00:35:00,0.0,1.92511,0.00035,404.727,0.030,0.2454,0.0013,140.002,45.000,34139.68187,1.92974,405.930,32.532,45.068,45.000,0.00,0.09,-272.71,-272.77,-2,976,-1,21.2,7.2,-15.7,20.7,7.5,-15.5,5.73,1.92,-11.8,25.3
2015-03-13 00:36:00,0.0,1.92480,0.00068,404.712,0.028,0.2472,0.0013,140.001,45.000,34138.17549,1.92953,405.920,32.556,45.067,44.999,0.00,0.09,-272.71,-272.77,-2,976,-1,21.2,7.2,-15.6,20.7,7.6,-15.4,5.73,1.92,-12.0,25.3
2015-03-13 00:37:00,0.0,1.92462,0.00071,404.701,0.048,0.2482,0.0021,139.996,45.000,34134.29246,1.92940,405.920,32.536,45.067,44.999,0.00,0.09,-272.71,-272.77,-2,975,-1,21.2,7.3,-15.5,20.7,7.6,-15.4,5.73,1.95,-12.0,25.3
2015-03-13 00:38:00,0.0,1.92469,0.00048,404.720,0.041,0.2485,0.0016,139.997,45.000,34134.19779,1.92938,405.934,32.500,45.067,44.999,0.00,0.09,-272.72,-272.77,-2,976,-1,21.2,7.3,-15.5,20.7,7.6,-15.3,5.73,1.95,-12.1,25.3
2015-03-13 00:39:00,0.0,1.92520,0.00041,404.774,0.027,0.2460,0.0019,139.999,45.000,34134.14648,1.92990,405.979,32.499,45.067,44.999,0.00,0.09,-272.70,-272.77,-2,976,-1,21.2,7.2,-15.7,20.7,7.5,-15.4,5.73,1.95,-11.9,25.3
2015-03-13 00:40:00,0.0,1.92523,0.00028,404.775,0.019,0.2445,0.0017,139.996,45.000,34133.87604,1.92987,405.973,32.465,45.068,45.000,0.00,0.09,-272.70,-272.76,-2,976,-1,21.2,7.2,-15.7,20.7,7.5,-15.5,5.73,1.95,-12.0,25.3
2015-03-13 00:41:00,0.0,1.92510,0.00035,404.761,0.024,0.2447,0.0021,140.000,45.000,34135.95191,1.92982,405.960,32.439,45.068,45.000,0.00,0.09,-272.72,-272.77,-2,976,-1,21.2,7.2,-15.7,20.8,7.5,-15.5,5.73,1.94,-11.9,25.3
2015-03-13 00:42:00,0.0,1.92510,0.00036,404.740,0.039,0.2468,0.0019,139.997,45.000,34137.09314,1.92976,405.949,32.437,45.068,45.000,0.00,0.09,-272.71,-272.76,-2,976,-1,21.2,7.2,-15.6,20.7,7.5,-15.5,5.73,1.94,-11.8,25.3
2015-03-13 00:43:00,0.0,1.92514,0.00028,404.729,0.028,0.2460,0.0017,139.997,45.000,34135.78619,1.92984,405.934,32.407,45.068,45.000,0.00,0.09,-272.70,-272.76,-2,976,-1,21.2,7.2,-15.6,20.7,7.5,-15.4,5.73,1.93,-11.7,25.3
2015-03-13 00:44:00,0.0,1.92531,0.00035,404.766,0.028,0.2460,0.0021,140.005,45.000,34134.24496,1.93000,405.971,32.389,45.068,45.000,0.00,0.09,-272.71,-272.77,-2,976,-1,21.2,7.2,-15.6,20.7,7.6,-15.4,5.73,1.91,-11.9,25.3
2015-03-13 00:45:00,0.0,1.92509,0.00049,404.741,0.038,0.2481,0.0017,139.996,45.000,34131.42534,1.92982,405.956,32.376,45.068,45.000,0.00,0.09,-272.70,-272.77,-2,976,-1,21.2,7.3,-15.5,20.7,7.6,-15.4,5.73,1.91,-11.9,25.3
2015-03-13 00:46:00,0.0,1.92538,0.00042,404.751,0.028,0.2475,0.0016,139.997,45.000,34130.26363,1.93005,405.965,32.378,45.068,45.000,0.00,0.09,-272.71,-272.77,-2,976,-1,21.2,7.3,-15.5,20.7,7.6,-15.4,5.73,1.90,-11.9,25.3
2015-03-13 00:47:00,0.0,1.92562,0.00042,404.761,0.036,0.2462,0.0015,140.001,45.000,34128.19394,1.93035,405.965,32.378,45.069,45.000,0.00,0.09,-272.72,-272.76,-3,976,-1,21.2,7.2,-15.6,20.7,7.6,-15.4,5.73,1.90,-11.8,25.3
2015-03-13 00:48:00,0.0,1.92516,0.00036,404.746,0.028,0.2483,0.0018,139.999,45.000,34127.94622,1.92988,405.964,32.377,45.068,45.000,0.00,0.09,-272.71,-272.76,-2,975,-1,21.2,7.3,-15.5,20.7,7.6,-15.4,5.73,1.90,-11.9,25.3
2015-03-13 00:49:00,0.0,1.92503,0.00036,404.745,0.033,0.2480,0.0016,139.998,45.000,34125.51539,1.92979,405.959,32.376,45.068,45.000,0.00,0.09,-272.70,-272.77,-3,976,-1,21.2,7.3,-15.5,20.7,7.6,-15.4,5.73,1.91,-11.9,25.3
2015-03-13 00:50:00,0.0,1.92510,0.00031,404.728,0.025,0.2487,0.0011,139.998,45.000,34127.39230,1.92983,405.946,32.382,45.068,45.000,0.00,0.09,-272.71,-272.77,-2,976,-1,21.2,7.3,-15.5,20.7,7.6,-15.4,5.73,1.92,-11.9,25.3
2015-03-13 00:51:00,0.0,1.92495,0.00032,404.741,0.043,0.2452,0.0018,140.001,45.000,34128.27336,1.92962,405.942,32.384,45.068,45.000,0.00,0.09,-272.71,-272.77,-3,976,-1,21.2,7.2,-15.6,20.7,7.5,-15.4,5.73,1.94,-11.9,25.3
2015-03-13 00:52:00,0.0,1.92503,0.00027,404.759,0.027,0.2451,0.0012,140.000,45.000,34127.07634,1.92971,405.960,32.385,45.068,45.000,0.00,0.09,-272.71,-272.77,-3,976,-1,21.2,7.2,-15.7,20.7,7.5,-15.5,5.73,1.94,-11.9,25.3
2015-03-13 00:53:00,0.0,1.92541,0.00035,404.781,0.026,0.2455,0.0012,140.003,45.000,34124.18787,1.93009,405.982,32.380,45.067,45.000,0.00,0.09,-272.70,-272.77,-2,975,-1,21.2,7.2,-15.7,20.7,7.5,-15.5,5.73,1.96,-11.9,25.2
2015-03-13 00:54:00,0.0,1.92513,0.00027,404.734,0.042,0.2468,0.0015,140.002,45.000,34123.03559,1.92981,405.946,32.377,45.068,45.000,0.00,0.09,-272.73,-272.76,-3,976,-1,21.2,7.2,-15.6,20.7,7.5,-15.5,5.73,1.95,-11.9,25.3
2015-03-13 00:55:00,0.0,1.92472,0.00036,404.724,0.036,0.2475,0.0026,139.999,45.000,34123.06312,1.92944,405.933,32.374,45.068,45.000,0.00,0.09,-272.68,-272.72,-3,976,-1,21.1,7.3,-15.6,20.7,7.6,-15.4,5.73,1.94,-11.9,25.2
2015-03-13 00:56:00,0.0,1.92506,0.00037,404.749,0.041,0.2439,0.0018,139.999,45.000,34122.18053,1.92972,405.944,32.335,45.068,45.000,0.00,0.09,-272.72,-272.76,-3,975,-1,21.1,7.2,-15.7,20.7,7.5,-15.5,5.73,1.92,-11.9,25.2
2015-03-13 00:57:00,0.0,1.92477,0.00035,404.751,0.024,0.2441,0.0018,139.996,45.000,34122.43248,1.92946,405.948,32.314,45.068,45.000,0.00,0.09,-272.71,-272.76,-2,976,-1,21.1,7.2,-15.7,20.7,7.5,-15.5,5.73,1.92,-11.9,25.3
2015-03-13 00:58:00,0.0,1.92502,0.00041,404.732,0.031,0.2434,0.0022,140.003,45.000,34124.65816,1.92966,405.926,32.330,45.068,45.000,0.00,0.09,-272.72,-272.78,-2,975,-1,21.1,7.2,-15.7,20.7,7.5,-15.6,5.73,1.90,-11.9,25.2
2015-03-13 00:59:00,0.0,1.92469,0.00039,404.735,0.037,0.2436,0.0021,140.001,45.000,34124.03154,1.92931,405.926,32.375,45.068,45.000,0.00,0.09,-272.70,-272.77,-3,976,-1,21.1,7.2,-15.7,20.7,7.5,-15.6,5.73,1.90,-11.9,25.2
2015-03-13 01:00:00,0.0,1.92475,0.00027,404.748,0.041,0.2442,0.0012,140.002,45.000,34124.77057,1.92941,405.944,32.374,45.068,45.000,0.00,0.09,-272.71,-272.76,-2,975,-1,21.1,7.2,-15.7,20.7,7.5,-15.6,5.73,1.89,-11.9,25.3
2015-03-13 01:01:00,0.0,1.92471,0.00038,404.742,0.024,0.2431,0.0015,140.002,45.000,34125.75547,1.92936,405.933,32.373,45.068,45.000,0.00,0.09,-272.71,-272.77,-3,975,-1,21.1,7.2,-15.7,20.7,7.5,-15.6,5.73,1.91,-11.9,25.3
2015-03-13 01:02:00,0.0,1.92463,0.00034,404.718,0.032,0.2433,0.0015,140.002,45.000,34125.71927,1.92926,405.910,32.375,45.068,45.000,0.00,0.09,-272.72,-272.77,-2,977,-1,21.1,7.2,-15.7,20.7,7.5,-15.6,5.73,1.91,-11.9,25.3
2015-03-13 01:03:00,0.0,1.92465,0.00025,404.733,0.034,0.2440,0.0013,140.000,45.000,34125.64758,1.92932,405.927,32.367,45.068,45.000,0.00,0.09,-272.72,-272.76,-2,975,-1,21.1,7.2,-15.7,20.7,7.5,-15.6,5.73,1.94,-11.9,25.3
2015-03-13 01:04:00,0.0,1.92455,0.00043,404.717,0.032,0.2460,0.0017,140.004,45.000,34127.37269,1.92922,405.923,32.376,45.068,45.000,0.00,0.09,-272.71,-272.76,-3,975,-1,21.1,7.3,-15.6,20.7,7.5,-15.5,5.73,1.96,-11.9,25.3
2015-03-13 01:05:00,0.0,1.92443,0.00040,404.713,0.032,0.2455,0.0012,140.004,45.000,34125.84089,1.92911,405.915,32.377,45.068,45.000,0.00,0.09,-272.71,-272.77,-2,976,-1,21.1,7.3,-15.6,20.7,7.6,-15.4,5.73,1.95,-11.9,25.2
2015-03-13 01:06:00,0.0,1.92452,0.00023,404.744,0.030,0.2425,0.0015,139.997,45.000,34121.57574,1.92914,405.932,32.366,45.068,45.000,0.00,0.09,-272.70,-272.77,-2,975,-1,21.1,7.2,-15.8,20.7,7.5,-15.5,5.73,1.95,-11.9,25.2
2015-03-13 01:07:00,0.0,1.92423,0.00025,404.700,0.036,0.2434,0.0013,140.001,45.000,34125.15875,1.92886,405.894,32.338,45.068,45.000,0.00,0.09,-272.72,-272.76,-3,975,-1,21.1,7.2,-15.7,20.7,7.5,-15.6,5.73,1.94,-11.9,25.2
2015-03-13 01:08:00,0.0,1.92444,0.00043,404.731,0.030,0.2430,0.0020,140.000,45.000,34126.42216,1.92908,405.920,32.326,45.068,45.000,0.00,0.09,-272.72,-272.76,-2,976,-1,21.1,7.2,-15.8,20.7,7.5,-15.6,5.73,1.92,-11.9,25.2
2015-03-13 01:09:00,0.0,1.92484,0.00047,404.737,0.027,0.2421,0.0020,139.999,45.000,34127.44741,1.92946,405.923,32.313,45.068,45.000,0.00,0.09,-272.72,-272.76,-2,975,-1,21.0,7.2,-15.8,20.7,7.4,-15.6,5.73,1.92,-11.9,25.2
2015-03-13 01:10:00,0.0,1.92481,0.00027,404.766,0.029,0.2430,0.0017,140.002,45.000,34127.33841,1.92942,405.957,32.313,45.068,45.000,0.00,0.09,-272.70,-272.77,-2,976,-1,21.0,7.2,-15.8,20.7,7.5,-15.6,5.73,1.91,-11.9,25.2
2015-03-13 01:11:00,0.0,1.92495,0.00033,404.745,0.023,0.2451,0.0026,140.000,45.000,34123.71193,1.92963,405.945,32.312,45.068,45.000,0.00,0.09,-272.70,-272.77,-3,975,-1,21.0,7.3,-15.7,20.7,7.5,-15.5,5.73,1.91,-11.9,25.2
2015-03-13 01:12:00,0.0,1.92466,0.00030,404.752,0.031,0.2464,0.0016,140.001,45.000,34127.42025,1.92936,405.958,32.281,45.068,45.000,0.00,0.09,-272.71,-272.77,-2,976,-1,21.0,7.3,-15.6,20.7,7.6,-15.4,5.73,1.90,-11.9,25.2
2015-03-13 01:13:00,0.0,1.92480,0.00038,404.745,0.041,0.2452,0.0019,140.001,45.000,34129.46065,1.92945,405.945,32.254,45.068,45.000,0.00,0.09,-272.71,-272.76,-2,975,-1,21.0,7.3,-15.7,20.7,7.6,-15.5,5.73,1.92,-11.9,25.1
2015-03-13 01:14:00,0.0,1.92482,0.00034,404.748,0.034,0.2459,0.0015,139.998,45.000,34128.13714,1.92953,405.954,32.251,45.068,45.000,0.00,0.09,-272.71,-272.77,-2,976,-1,21.0,7.3,-15.6,20.7,7.6,-15.5,5.73,1.92,-11.9,25.1
2015-03-13 01:15:00,0.0,1.92487,0.00042,404.729,0.027,0.2481,0.0016,139.997,45.000,34125.73110,1.92959,405.944,32.250,45.068,45.000,0.00,0.09,-272.71,-272.77,-2,976,-1,21.0,7.3,-15.5,20.6,7.6,-15.4,5.73,1.93,-11.9,25.1
2015-03-13 01:16:00,0.0,1.92491,0.00040,404.726,0.035,0.2475,0.0018,139.997,45.000,34128.20792,1.92964,405.938,32.250,45.068,45.000,0.00,0.09,-272.71,-272.77,-2,977,-1,21.0,7.3,-15.5,20.6,7.6,-15.4,5.73,1.93,-11.9,25.1
2015-03-13 01:17:00,0.0,1.92506,0.00045,404.760,0.026,0.2456,0.0020,140.001,45.000,34129.68551,1.92972,405.963,32.254,45.068,45.000,0.00,0.09,-272.71,-272.76,-2,976,-1,21.0,7.3,-15.6,20.6,7.6,-15.5,5.73,1.95,-11.9,25.1
2015-03-13 01:18:00,0.0,1.92481,0.00052,404.761,0.027,0.2469,0.0017,139.995,45.000,34129.52908,1.92953,405.969,32.250,45.068,45.000,0.00,0.09,-272.72,-272.77,-2,976,-1,21.0,7.4,-15.5,20.6,7.6,-15.4,5.73,1.94,-11.9,25.1
2015-03-13 01:19:00,0.0,1.92487,0.00035,404.743,0.026,0.2477,0.0017,139.999,45.000,34130.39605,1.92957,405.958,32.251,45.068,45.000,0.00,0.09,-272.72,-272.76,-2,976,-1,21.0,7.4,-15.5,20.6,7.6,-15.4,5.73,1.95,-11.9,25.1
2015-03-13 01:20:00,0.0,1.92521,0.00027,404.745,0.028,0.2468,0.0015,139.998,45.000,34131.45137,1.92990,405.955,32.277,45.068,45.000,0.00,0.09,-272.70,-272.75,-2,976,-1,21.0,7.4,-15.5,20.6,7.6,-15.4,5.73,1.95,-11.9,25.1
2015-03-13 01:21:00,0.0,1.92522,0.00028,404.735,0.041,0.2483,0.0018,139.999,45.000,34133.12823,1.92997,405.952,32.302,45.068,45.000,0.00,0.09,-272.71,-272.76,-2,975,-1,21.0,7.4,-15.5,20.6,7.7,-15.3,5.73,1.95,-11.9,25.1
2015-03-13 01:22:00,0.0,1.92485,0.00021,404.723,0.035,0.2498,0.0016,140.003,45.000,34135.77430,1.92962,405.947,32.296,45.068,45.000,0.00,0.09,-272.71,-272.77,-2,976,-1,21.0,7.4,-15.4,20.6,7.7,-15.3,5.73,1.96,-12.0,25.1
2015-03-13 01:23:00,0.0,1.92501,0.00034,404.733,0.032,0.2493,0.0021,140.002,45.000,34134.29111,1.92976,405.955,32.268,45.068,45.000,0.00,0.09,-272.71,-272.76,-1,976,-1,21.0,7.5,-15.4,20.6,7.7,-15.3,5.73,1.95,-11.9,25.1
2015-03-13 01:24:00,0.0,1.92495,0.00035,404.737,0.039,0.2496,0.0018,139.999,45.000,34135.02836,1.92969,405.962,32.273,45.068,45.000,0.00,0.09,-272.70,-272.77,-2,976,-1,21.0,7.4,-15.4,20.6,7.7,-15.3,5.73,1.94,-12.0,25.1
2015-03-13 01:25:00,0.0,1.92519,0.00035,404.743,0.035,0.2507,0.0021,140.001,45.000,34133.42379,1.92996,405.967,32.283,45.068,45.000,0.00,0.09,-272.71,-272.78,-1,976,-1,21.0,7.5,-15.4,20.6,7.7,-15.3,5.73,1.93,-11.9,25.1
2015-03-13 01:26:00,0.0,1.92524,0.00038,404.747,0.032,0.2523,0.0013,140.002,45.000,34132.93492,1.93010,405.984,32.313,45.068,45.000,0.00,0.09,-272.71,-272.77,-2,977,-1,21.0,7.5,-15.3,20.6,7.8,-15.2,5.73,1.93,-12.0,25.1
2015-03-13 01:27:00,0.0,1.92473,0.00038,404.713,0.027,0.2535,0.0022,140.001,45.000,34134.29760,1.92953,405.955,32.310,45.068,45.000,0.00,0.09,-272.70,-272.77,-1,975,-1,21.0,7.5,-15.2,20.6,7.8,-15.1,5.73,1.92,-12.0,25.1
2015-03-13 01:28:00,0.0,1.92525,0.00028,404.725,0.029,0.2544,0.0022,140.001,45.000,34132.67307,1.93012,405.972,32.296,45.068,45.000,0.00,0.09,-272.71,-272.77,-2,976,-1,21.0,7.6,-15.2,20.6,7.8,-15.1,5.73,1.92,-12.0,25.2
2015-03-13 01:29:00,0.0,1.92511,0.00023,404.728,0.027,0.2530,0.0013,140.000,45.000,34132.38853,1.92993,405.967,32.263,45.068,45.000,0.00,0.09,-272.72,-272.77,-1,975,-1,21.0,7.5,-15.2,20.6,7.8,-15.1,5.73,1.92,-12.0,25.2
2015-03-13 01:30:00,0.0,1.92513,0.00030,404.736,0.024,0.2537,0.0019,140.001,45.000,34133.82581,1.92996,405.979,32.252,45.068,45.000,0.00,0.09,-272.71,-272.77,-1,976,-1,21.0,7.6,-15.2,20.6,7.8,-15.1,5.73,1.92,-12.0,25.2
2015-03-13 01:31:00,0.0,1.92498,0.00029,404.723,0.043,0.2545,0.0018,140.001,45.000,34134.00115,1.92984,405.970,32.243,45.068,45.000,0.00,0.09,-272.71,-272.77,-1,975,-1,21.0,7.6,-15.2,20.6,7.8,-15.0,5.73,1.93,-12.0,25.2
2015-03-13 01:32:00,0.0,1.92529,0.00031,404.732,0.025,0.2533,0.0017,140.004,45.000,34135.54906,1.93009,405.972,32.250,45.068,45.000,0.00,0.09,-272.71,-272.77,-1,976,-1,21.0,7.5,-15.2,20.6,7.8,-15.1,5.73,1.92,-11.9,25.2
2015-03-13 01:33:00,0.0,1.92513,0.00033,404.730,0.024,0.2541,0.0018,140.000,45.000,34135.51047,1.92997,405.975,32.263,45.068,45.000,0.00,0.09,-272.72,-272.77,-2,976,-1,21.0,7.5,-15.2,20.6,7.8,-15.1,5.73,1.92,-12.0,25.1
2015-03-13 01:34:00,0.0,1.92498,0.00028,404.740,0.034,0.2548,0.0026,139.997,45.000,34134.14407,1.92985,405.990,32.290,45.068,45.000,0.00,0.09,-272.72,-272.76,-1,977,-1,21.0,7.6,-15.2,20.6,7.9,-15.0,5.73,1.93,-11.9,25.2
2015-03-13 01:35:00,0.0,1.92526,0.00040,404.736,0.030,0.2549,0.0020,139.999,45.000,34132.38140,1.93014,405.984,32.311,45.068,45.000,0.00,0.09,-272.72,-272.77,-1,976,-1,21.0,7.6,-15.2,20.6,7.9,-15.0,5.73,1.94,-12.0,25.2
2015-03-13 01:36:00,0.0,1.92534,0.00034,404.711,0.035,0.2558,0.0025,139.999,45.000,34133.52334,1.93022,405.964,32.314,45.068,45.000,0.00,0.09,-272.71,-272.77,-1,976,-1,21.1,7.6,-15.1,20.6,7.9,-15.0,5.73,1.94,-11.9,25.2
2015-03-13 01:37:00,0.0,1.92539,0.00042,404.746,0.035,0.2568,0.0017,139.999,45.000,34133.46641,1.93024,406.004,32.312,45.068,45.000,0.00,0.09,-272.70,-272.76,-2,975,-1,21.0,7.6,-15.1,20.6,7.9,-14.9,5.73,1.95,-11.9,25.2
2015-03-13 01:38:00,0.0,1.92558,0.00035,404.751,0.031,0.2569,0.0013,140.000,45.000,34132.18916,1.93049,406.008,32.318,45.068,45.000,0.00,0.09,-272.71,-272.75,-1,976,-1,21.1,7.6,-15.0,20.6,7.9,-14.9,5.73,1.95,-11.9,25.2
2015-03-13 01:39:00,0.0,1.92532,0.00034,404.745,0.035,0.2574,0.0017,139.997,45.000,34132.25958,1.93023,406.007,32.340,45.068,45.000,0.00,0.09,-272.71,-272.77,-2,975,-1,21.0,7.6,-15.0,20.6,7.9,-14.9,5.73,1.96,-11.9,25.2
2015-03-13 01:40:00,0.0,1.92555,0.00028,404.744,0.031,0.2577,0.0013,140.001,45.000,34133.15140,1.93049,406.005,32.370,45.068,45.000,0.00,0.09,-272.70,-272.78,-1,976,-1,21.1,7.7,-15.0,20.6,8.0,-14.9,5.73,1.95,-12.0,25.2
2015-03-13 01:41:00,0.0,1.92554,0.00036,404.757,0.031,0.2584,0.0011,140.001,45.000,34132.48316,1.93046,406.023,32.375,45.068,45.000,0.00,0.09,-272.72,-272.76,-1,976,-1,21.0,7.6,-15.0,20.6,7.9,-14.9,5.73,1.95,-12.0,25.2
2015-03-13 01:42:00,0.0,1.92550,0.00045,404.735,0.040,0.2590,0.0015,140.001,45.000,34132.45733,1.93046,406.004,32.403,45.068,45.000,0.00,0.09,-272.71,-272.77,-1,976,-1,21.1,7.7,-15.0,20.7,8.0,-14.8,5.73,1.95,-11.9,25.2
2015-03-13 01:43:00,0.0,1.92543,0.00038,404.744,0.031,0.2596,0.0021,140.001,45.000,34133.89924,1.93036,406.017,32.425,45.068,45.000,0.00,0.09,-272.71,-272.77,-2,976,-1,21.1,7.7,-14.9,20.6,8.0,-14.8,5.73,1.94,-11.8,25.2
2015-03-13 01:44:00,0.0,1.92572,0.00049,404.726,0.026,0.2604,0.0014,140.002,45.000,34132.18672,1.93069,406.004,32.436,45.068,45.000,0.00,0.09,-272.71,-272.76,-1,976,-1,21.0,7.7,-15.0,20.7,8.0,-14.7,5.73,1.93,-11.7,25.2
2015-03-13 01:45:00,0.0,1.92550,0.00035,404.724,0.040,0.2598,0.0013,139.999,45.000,34133.12954,1.93046,405.996,32.440,45.068,45.000,0.00,0.09,-272.71,-272.76,-1,975,-1,21.0,7.7,-14.9,20.7,8.0,-14.8,5.73,1.92,-11.9,25.2
2015-03-13 01:46:00,0.0,1.92552,0.00039,404.718,0.037,0.2593,0.0014,140.000,45.000,34132.84162,1.93048,405.989,32.480,45.068,45.000,0.00,0.09,-272.72,-272.77,-2,976,-1,21.0,7.7,-15.0,20.7,8.0,-14.8,5.73,1.92,-11.9,25.2